Lapse_Rate
4.1 3.5 2.9 3.3 4.2 5.5 6.0 6.5 5.9 5.5 5.6 4.8 4.9 4.8 4.9 4.7 4.5 4.7 4.8 5.1 5.1 5.1 5.3 5.3 5.0 5.2 5.7 4.8 4.9 4.9 5.3 5.9 6.2 6.0 6.2 6.1 6.2 6.4 6.4 6.2 5.3 5.6 5.6 4.6
4.5 4.0 3.5 3.5 4.0 5.2 5.9 6.2 5.6 5.0 4.8 4.8 4.4 4.6 5.0 5.3 5.0 5.3 5.2 5.4 5.2 5.1 5.4 5.0 4.7 5.0 5.1 4.5 4.2 4.5 4.6 4.9 5.7 5.5 5.6 5.7 5.9 6.0 6.1 6.2 6.0 5.5 5.0 4.4
5.3 4.7 4.0 3.5 4.5 5.5 5.3 5.1 4.5 4.8 4.1 4.9 4.9 4.5 4.6 5.2 5.1 5.2 5.1 5.3 5.1 5.3 5.0 5.1 4.8 4.7 4.3 4.4 4.3 4.3 4.4 5.1 5.9 6.0 6.0 6.0 5.7 5.7 5.5 5.4 5.0 5.3 4.7 5.3
6.2 5.5 4.5 4.1 4.7 5.2 5.4 5.5 4.8 5.1 4.4 4.7 4.9 4.8 4.8 4.6 4.8 4.5 4.4 4.9 5.2 5.5 5.1 4.6 4.1 3.9 3.6 3.2 3.8 4.3 4.9 5.1 5.5 5.5 5.6 5.6 5.6 5.7 5.6 5.2 5.4 5.0 5.4 5.4
6.5 5.9 4.9 4.2 4.7 5.3 6.1 5.4 5.3 5.3 5.8 5.5 4.5 4.1 4.1 4.7 4.3 5.1 4.4 4.9 4.8 4.9 5.1 4.7 4.1 4.2 4.1 4.2 4.3 4.6 4.5 4.5 4.9 5.1 5.4 5.3 5.0 5.0 4.9 4.7 5.3 5.6 5.7 5.3
6.9 6.2 5.7 4.5 5.2 5.4 6.5 5.7 5.6 5.4 4.5 4.6 4.4 4.2 4.0 4.2 4.8 4.6 5.1 5.0 4.6 4.3 4.3 4.2 4.1 4.4 4.6 4.8 4.9 4.8 4.7 4.9 5.2 4.9 4.7 4.6 4.6 5.2 5.3 5.3 5.3 5.5 5.2 5.5
7.2 7.1 6.2 6.4 6.1 6.2 6.6 6.0 5.8 5.7 4.8 4.3 4.5 4.4 4.5 4.6 4.8 5.4 4.6 4.5 4.6 4.2 3.8 4.1 4.4 4.7 4.8 4.8 4.7 4.8 4.9 5.0 4.9 4.5 4.5 2.6 4.6 4.5 5.0 4.9 5.1 5.6 5.6 5.8
7.2 6.8 6.6 6.9 6.0 5.7 6.1 5.8 6.0 5.5 4.6 4.6 4.2 4.3 4.4 4.2 4.4 4.4 4.0 3.9 4.2 4.0 4.2 4.4 4.4 4.4 4.3 4.5 4.7 4.9 5.0 4.9 4.7 4.5 4.1 4.3 4.7 5.1 5.6 5.3 5.1 6.0 6.3 6.6
6.1 6.3 6.9 6.9 6.5 6.2 6.2 5.8 6.0 6.1 6.2 4.3 4.5 4.5 4.2 4.2 4.2 3.8 4.1 3.8 3.9 4.3 4.4 4.3 4.4 4.2 4.6 4.6 4.6 5.0 5.0 4.8 4.7 4.1 4.0 3.2 4.3 5.0 5.7 5.6 5.3 6.7 6.6 7.0
6.1 5.9 5.8 5.6 6.0 6.0 5.7 5.2 5.3 5.8 5.9 4.5 4.6 4.7 4.4 4.4 4.3 4.3 4.2 4.1 4.3 4.6 4.5 4.6 4.6 4.7 4.8 4.9 5.0 5.1 5.2 4.8 4.6 4.8 4.9 4.7 4.9 5.5 6.1 5.9 6.6 6.7 7.1 7.4
5.3 5.2 5.1 4.5 4.9 5.1 5.4 5.1 5.0 5.9 5.5 4.5 4.5 4.4 4.8 4.6 4.3 4.9 4.5 4.4 4.1 4.3 4.7 4.6 4.5 4.4 4.5 4.9 5.2 5.3 5.4 5.3 5.1 5.1 5.1 4.7 5.6 6.4 6.4 6.8 7.2 7.5 7.6 7.7
5.5 5.3 4.8 4.8 4.6 4.8 5.6 5.9 5.0 4.9 5.3 4.7 4.5 4.7 4.8 4.9 5.0 5.3 5.1 5.0 5.0 4.9 4.9 4.7 4.8 4.5 4.7 4.8 4.7 5.3 5.3 5.8 6.0 6.3 6.3 6.9 6.9 7.0 7.4 7.4 7.3 8.0 7.8 7.8
5.4 5.5 5.7 5.6 5.6 5.3 5.6 5.8 5.5 5.7 5.9 5.0 4.7 4.6 4.6 4.8 4.9 4.9 5.1 5.1 5.2 5.1 5.1 5.0 4.9 4.9 4.9 4.8 5.0 5.5 5.7 6.2 6.4 6.8 6.8 7.4 7.8 7.6 7.8 7.8 8.0 8.3 8.2 8.1
5.7 5.8 5.8 5.9 5.8 5.8 5.8 6.0 5.6 5.9 5.8 5.0 5.0 5.1 5.2 5.2 5.2 5.1 5.0 5.0 5.0 5.1 5.2 5.3 5.3 5.4 5.3 5.5 5.7 5.7 6.2 6.3 6.7 6.7 7.1 7.9 8.0 8.1 8.0 7.7 7.5 7.8 8.0 8.2
5.6 5.6 5.7 5.8 5.8 5.6 5.7 5.9 5.7 5.9 6.1 5.3 5.0 5.1 5.3 5.4 5.6 5.6 5.5 5.4 5.5 5.6 5.7 5.9 5.9 6.0 5.8 5.8 6.0 6.8 7.4 7.4 7.0 6.8 7.9 7.7 7.8 8.0 7.9 7.8 7.9 7.9 7.8 7.9
6.0 5.9 5.8 5.8 5.8 5.8 5.9 5.9 5.8 5.9 5.9 5.8 5.2 5.4 5.2 5.4 5.7 6.0 6.1 6.1 6.0 5.9 5.9 6.1 6.4 6.6 6.5 6.6 7.0 8.1 7.6 7.4 7.5 7.6 7.9 7.8 7.9 8.2 8.2 8.0 8.1 7.9 7.8 7.7
6.3 6.2 6.1 6.2 6.3 6.4 6.5 6.5 6.2 6.2 6.4 6.6 5.9 5.6 5.7 5.7 5.9 6.0 6.0 6.1 6.1 6.2 6.4 6.9 7.0 7.1 6.6 6.8 7.7 8.1 7.7 7.8 7.7 7.1 7.0 7.4 7.4 7.4 7.5 7.3 7.3 7.3 7.4 7.5
6.1 6.1 6.3 6.4 6.4 6.5 6.6 6.6 6.5 6.6 6.7 6.9 6.4 6.1 6.3 6.5 6.7 6.8 7.0 7.0 6.9 7.1 7.3 7.6 7.3 7.0 7.0 7.3 8.1 7.5 7.4 7.4 7.2 7.1 7.0 7.1 7.2 7.4 7.4 7.5 7.5 7.5 7.4 7.4
6.4 6.4 6.4 6.5 6.5 6.7 6.7 6.8 7.0 7.0 7.4 7.3 7.2 7.0 6.8 7.0 7.2 7.3 7.3 7.4 7.6 7.5 7.6 7.4 7.1 7.1 7.4 8.2 7.8 7.5 7.2 7.3 7.5 7.5 7.4 7.3 7.2 7.2 7.3 7.3 7.4 7.4 7.4 7.4
6.8 6.8 6.8 6.8 6.9 7.2 7.4 7.6 7.6 7.6 7.8 7.6 7.6 7.6 7.5 7.5 7.6 7.5 7.5 7.6 7.5 7.3 7.4 7.2 7.0 7.7 7.9 7.9 8.0 7.9 7.9 7.9 7.8 7.7 7.6 7.4 7.4 7.2 7.3 7.4 7.4 7.4 7.5 7.7
7.6 7.8 7.9 7.8 7.8 7.8 7.8 7.7 7.7 7.6 7.6 7.5 7.5 7.7 7.7 7.6 7.6 7.6 7.5 7.3 7.4 7.3 7.4 7.3 7.3 8.0 8.1 7.9 7.9 8.2 7.8 7.6 7.7 7.6 7.6 7.7 7.6 7.6 7.6 7.6 7.4 7.4 7.7 7.7
7.7 7.7 7.8 7.8 8.0 8.0 7.9 7.7 7.6 7.7 7.5 7.5 7.7 7.7 7.8 7.8 7.6 7.4 7.3 7.3 7.3 7.4 7.3 7.5 7.7 8.1 7.9 8.2 8.1 8.0 7.8 7.6 7.5 7.5 7.6 7.6 7.5 7.4 7.5 7.5 7.5 7.5 7.6 7.6
7.8 7.9 8.0 7.9 7.9 7.8 7.9 7.6 7.6 7.6 7.6 7.6 7.7 7.8 7.9 7.8 7.6 7.5 7.5 7.4 7.3 7.3 7.4 7.6 7.8 7.9 7.9 7.8 7.7 7.9 7.8 7.8 7.6 7.5 7.6 7.5 7.5 7.6 7.5 7.4 7.4 7.4 7.4 7.4
7.9 7.9 7.9 7.8 7.7 7.6 7.5 7.5 7.5 7.5 7.6 7.7 7.8 7.8 7.8 7.8 7.6 7.5 7.4 7.4 7.3 7.3 7.3 7.6 7.7 7.7 7.5 7.6 7.8 7.9 7.8 7.7 7.5 7.5 7.5 7.5 7.6 7.6 7.4 7.4 7.3 7.2 7.2 7.4
7.9 7.9 7.9 7.9 7.7 7.5 7.4 7.5 7.6 7.6 7.6 7.7 7.8 7.8 7.6 7.5 7.4 7.5 7.3 7.3 7.4 7.5 7.6 7.6 7.6 7.5 7.6 7.6 7.7 7.6 7.6 7.7 7.5 7.4 7.4 7.4 7.5 7.5 7.4 7.3 7.2 7.1 7.2 7.4
7.8 7.9 7.9 7.8 7.7 7.6 7.6 7.6 7.7 7.6 7.7 7.6 7.6 7.6 7.6 7.5 7.4 7.4 7.4 7.3 7.6 7.7 7.7 7.7 7.8 7.9 7.9 7.9 7.9 7.7 7.5 7.4 7.3 7.3 7.4 7.3 7.2 7.3 7.3 7.2 7.2 7.0 7.1 7.2
7.8 8.0 7.9 7.8 7.7 7.5 7.4 7.4 7.5 7.5 7.5 7.4 7.5 7.6 7.8 7.5 7.6 7.5 7.5 7.5 7.7 7.7 7.7 7.5 7.7 7.7 7.7 7.7 7.5 7.5 7.5 7.2 7.2 7.2 7.1 7.0 7.0 7.1 7.3 7.2 6.9 6.9 6.9 6.9
Wind_Speed
35 33 33 29 23 20 27 7 6 9 15 11 6 10 9 6 12 4 2 2 11 13 16 14 17 10 2 1 6 7 2 4 4 1 3 4 1 3 4 5 5 2 2 10
35 33 33 30 25 37 6 10 3 0 9 10 9 9 9 7 11 9 9 11 11 6 13 7 12 2 5 2 3 7 6 1 4 2 3 2 3 3 4 5 3 5 5 12
34 32 33 31 27 40 6 5 4 2 2 2 12 9 7 9 11 10 7 6 6 7 8 1 10 10 4 2 2 8 5 3 3 6 3 4 4 5 5 4 3 3 11 12
33 33 33 32 31 38 5 3 4 5 10 7 15 12 8 15 9 7 11 3 8 11 6 5 5 6 5 4 4 4 3 4 3 4 4 2 3 4 6 7 7 7 17 12
32 32 32 32 35 30 3 6 6 4 14 17 14 7 12 21 7 9 11 10 14 7 5 4 7 8 2 3 3 3 3 2 3 3 3 5 9 7 10 11 12 12 16 24
30 30 29 26 32 14 3 3 5 6 12 14 14 6 8 16 12 4 12 17 17 10 6 7 6 6 5 5 5 3 4 5 3 2 4 5 9 10 14 6 8 8 10 15
23 22 26 23 18 7 5 8 5 5 9 12 8 17 22 18 6 13 18 14 9 9 15 11 9 8 5 4 3 3 4 5 3 3 4 3 3 1 6 10 9 9 11 11
31 32 32 29 24 21 11 0 4 4 9 11 17 23 19 16 14 13 13 5 12 13 9 4 5 2 2 4 6 7 4 4 3 4 4 8 7 7 5 6 8 7 7 6
29 29 26 26 23 21 7 3 2 6 12 2 19 17 14 12 10 7 7 11 7 8 3 3 2 4 3 3 3 2 5 4 4 3 5 6 4 3 3 4 5 6 7 7
28 28 25 24 23 19 7 2 0 9 12 9 13 5 7 6 7 8 7 5 4 4 2 3 2 3 2 4 5 5 4 2 8 5 4 6 3 4 3 4 5 5 2 6
29 28 26 24 23 21 8 4 5 7 8 6 10 6 8 3 4 9 6 4 3 3 4 3 3 3 3 2 1 3 5 5 3 2 2 8 1 3 2 3 7 6 5 8
30 29 27 28 24 20 17 8 6 6 8 5 6 6 2 7 7 9 3 4 3 3 4 1 3 2 2 4 3 2 2 5 4 7 6 6 4 7 9 10 11 12 6 11
29 28 29 28 26 24 15 5 3 5 9 8 6 7 7 9 7 4 4 1 5 3 2 3 2 3 3 4 4 4 3 4 3 1 5 7 8 7 10 12 15 10 12 12
26 26 26 26 27 29 22 5 3 5 4 5 3 2 5 3 8 8 6 7 6 6 4 3 2 2 3 3 2 4 5 4 4 4 11 10 15 12 9 12 9 9 9 9
24 22 20 18 19 20 15 10 8 5 5 4 3 3 7 5 9 11 10 11 7 3 3 2 2 1 2 1 0 4 5 6 4 6 10 7 9 6 8 8 11 11 7 6
21 22 21 17 12 8 4 5 4 8 3 4 3 3 4 4 7 9 8 5 4 3 3 2 1 2 3 2 3 5 6 6 11 8 7 7 10 10 15 17 14 7 6 7
18 18 18 21 23 10 5 3 3 7 3 3 3 2 4 4 4 3 3 3 3 3 3 2 4 3 4 2 4 3 6 7 9 9 10 11 9 6 5 6 7 8 7 7
17 15 15 15 15 9 5 5 10 3 4 4 3 1 4 4 2 2 2 2 2 1 3 2 3 1 3 4 10 9 13 14 10 9 8 8 4 6 6 5 6 8 8 7
14 12 12 6 6 4 2 10 12 4 4 3 3 3 2 3 1 2 2 2 1 0 2 3 3 3 5 10 7 7 8 5 5 3 4 4 5 6 5 6 7 7 7 7
10 6 4 4 2 4 5 5 4 5 4 3 2 1 1 3 0 1 2 2 1 1 4 3 3 3 11 8 9 7 6 5 3 2 4 3 4 6 7 6 7 8 9 9
3 3 2 3 5 2 3 3 3 1 3 2 2 2 3 2 3 2 2 2 2 2 2 3 2 3 4 3 5 5 5 4 7 3 5 5 4 5 6 6 7 8 8 6
2 2 1 2 2 3 5 1 1 3 2 1 3 2 2 1 2 3 0 1 1 3 3 1 2 3 2 3 3 6 7 6 6 5 5 5 5 5 5 7 7 6 6 8
2 3 3 3 3 7 3 1 2 2 2 2 2 2 2 2 1 1 2 1 3 2 2 3 3 2 4 6 7 4 5 5 4 8 9 7 7 6 6 8 7 7 8 9
3 3 4 3 2 1 2 2 3 2 3 3 3 2 2 2 2 2 3 3 1 2 0 3 2 3 4 5 5 4 6 6 5 6 7 7 7 7 7 7 7 6 8 8
2 2 1 2 2 2 2 1 2 0 3 3 2 1 3 2 2 3 2 1 3 4 3 2 1 2 2 2 2 4 5 4 5 5 5 6 7 7 8 7 7 7 5 7
2 1 1 2 2 3 2 1 1 1 3 2 2 2 1 3 2 5 6 3 4 2 2 1 1 2 2 2 1 2 4 5 5 6 6 6 6 6 7 7 6 5 5 6
1 3 1 3 2 4 3 3 3 3 3 2 2 4 6 1 2 3 3 3 3 2 1 1 2 2 3 3 2 4 4 4 5 5 5 5 6 5 4 5 7 7 7 4
Wind_Direction
221 217 215 211 201 193 161 148 176 180 161 177 186 161 173 164 167 185 163 225 197 195 194 187 206 203 135 86 149 139 133 114 141 129 10 36 100 138 134 142 227 243 146 260
213 213 211 208 194 174 152 147 113 107 203 174 189 132 146 147 145 168 171 189 185 208 186 177 215 188 12 127 106 155 167 143 113 34 341 44 122 105 108 99 94 197 164 262
208 206 208 207 202 183 113 114 135 66 319 92 171 149 165 140 150 148 162 152 165 147 155 143 174 168 8 49 100 98 105 147 168 204 128 127 160 173 131 136 123 193 239 305
202 203 204 202 197 181 118 133 166 150 177 175 165 165 155 151 141 153 157 145 184 163 137 158 159 121 133 38 50 37 84 150 113 97 113 159 180 196 180 184 189 216 277 259
193 199 201 197 189 173 121 138 142 163 151 135 140 165 164 162 131 141 166 156 163 138 124 157 149 145 131 158 55 75 26 126 110 167 196 240 254 218 216 219 241 250 259 276
192 195 194 207 171 165 112 157 132 118 141 149 155 179 149 155 123 124 152 142 138 141 124 101 85 76 94 139 129 122 136 136 115 193 72 350 298 221 216 197 237 221 238 253
164 142 127 118 126 121 119 141 109 90 135 162 157 145 133 141 114 135 138 132 113 123 112 86 59 50 63 127 148 123 139 118 102 152 71 294 241 63 155 205 234 240 255 262
93 93 98 96 95 103 112 35 86 116 125 132 131 136 131 107 101 113 111 92 124 117 82 81 103 12 4 244 220 188 157 122 124 143 195 294 282 213 173 180 260 239 233 254
81 81 85 95 94 93 83 30 225 113 119 115 124 110 130 123 114 98 109 80 71 81 83 107 138 149 178 205 163 271 143 136 136 131 167 236 214 203 136 107 273 177 197 247
71 70 73 82 90 92 94 54 4 95 107 118 113 113 133 141 112 110 104 122 77 55 105 103 123 170 175 205 176 156 135 96 201 199 215 275 292 317 127 180 245 210 219 264
62 62 61 65 72 82 87 75 38 121 87 54 123 117 138 120 91 130 168 90 357 59 78 119 171 151 184 163 190 176 163 158 186 107 163 254 98 12 217 272 305 281 263 257
60 59 55 55 53 61 76 66 31 71 86 121 75 77 59 116 135 122 32 136 126 160 99 123 112 128 119 160 197 170 235 190 191 172 212 219 198 189 234 263 259 269 256 265
59 58 57 54 54 62 82 78 359 62 91 67 55 47 17 54 78 125 116 69 143 82 126 143 131 125 140 160 215 193 248 193 199 112 258 245 253 240 239 262 268 261 264 251
57 57 59 61 64 66 66 65 328 76 94 89 13 352 38 27 67 67 94 122 73 95 66 83 116 145 171 201 217 194 197 158 198 254 279 275 254 249 248 258 262 268 266 251
52 50 52 55 56 60 71 64 39 38 106 125 86 10 8 83 91 86 96 106 98 88 72 82 158 164 107 243 294 234 177 204 187 238 239 230 260 253 271 271 282 275 276 288
52 50 50 39 45 55 52 40 360 16 43 93 85 276 29 66 95 103 103 94 86 96 123 158 198 264 128 173 240 232 207 208 217 240 246 236 260 263 274 265 267 255 271 268
48 57 60 59 59 66 64 127 250 339 54 83 73 33 358 31 79 46 74 46 95 108 135 160 164 205 163 209 244 170 214 231 251 241 255 277 258 249 291 253 262 270 273 268
36 37 38 39 45 59 35 0 19 61 87 65 92 324 43 19 43 52 4 84 45 1 163 106 172 123 176 248 249 258 248 251 253 239 216 220 257 279 266 269 286 281 278 276
9 8 25 29 33 37 308 341 27 35 92 97 74 112 193 3 58 113 36 74 55 301 149 213 119 190 220 230 238 225 230 216 233 273 271 257 251 264 289 280 278 278 285 287
25 25 38 20 331 319 10 8 24 18 356 33 94 217 114 109 16 350 80 23 191 182 231 131 194 250 252 248 235 241 257 238 258 290 310 283 271 260 273 273 277 277 279 281
35 44 63 250 310 35 35 38 70 329 45 28 175 159 136 335 97 146 159 187 205 225 229 143 230 258 242 197 83 30 30 62 55 38 29 14 338 306 297 289 279 276 283 291
198 173 340 12 12 28 77 26 316 53 125 275 122 175 128 104 104 96 118 214 87 249 139 162 256 255 314 41 66 66 52 47 39 27 355 328 303 299 291 294 293 295 292 288
47 48 44 52 359 38 87 84 5 58 164 169 139 108 120 118 89 121 86 71 234 67 54 227 232 294 43 46 57 68 43 34 14 343 331 322 311 300 292 296 291 290 293 289
60 66 2 109 330 298 180 150 149 211 125 129 136 123 151 134 127 155 192 217 86 12 231 239 336 35 58 48 38 18 349 352 346 324 315 307 302 300 295 282 284 286 287 293
49 51 247 228 236 265 279 104 80 223 123 112 62 128 163 162 195 184 203 177 235 204 224 172 162 33 19 51 25 350 331 313 299 299 300 299 297 295 293 292 292 281 282 293
57 207 237 279 48 307 345 233 214 194 112 77 69 134 180 220 211 192 208 194 216 204 209 166 212 220 219 214 222 283 282 294 302 293 286 286 286 291 295 301 300 305 299 296
258 256 204 167 193 203 215 179 221 141 86 164 135 193 209 215 232 210 184 211 154 180 160 177 217 240 194 213 265 297 296 286 287 291 290 286 292 299 311 318 319 315 298 296